Weather Roundup
Issued by NWS

Home | Current Version | Previous Version | Text Only | Print | Product List | Glossary On
Versions: 1 2 3 4 5 6 7 8 9 10 11 12 13 14 15 16 17 18 19 20 21 22 23 24 25 26 27 28 29 30 31 32 33 34 35 36 37 38 39 40 41 42 43 44 45 46 47 48 49 50
000
NZUS93 KARX 231710
HRRWXR

CURRENT HOURLY OBSERVATIONS ACROSS
MUCH OF THE UPPER MISSISSIPPI VALLEY
NATIONAL WEATHER SERVICE LA CROSSE WI
1200 PM CDT WED APR 23 2014


...SOUTHEAST MINNESOTA...


CITY           SKY/WX    TMP DP  RH WIND       PRES   REMARKS
ROCHESTER      CLOUDY    44  30  57 SE14      30.10F
ROCHESTER/MAYO CLOUDY    44  26  48 SE13G18   30.10F
WINONA         CLOUDY    48  30  49 S8        30.15R
AUSTIN         LGT RAIN  45  30  57 SE15      30.07F
ALBERT LEA     MIX PCPN  45  30  57 SE20G29   30.03F
DODGE CENTER   LGT RAIN  45  36  70 SE14      30.08F
PRESTON        CLOUDY    44  29  55 SE13      30.12F
OWATONNA       RAIN      41  36  81 E12       30.07F
FARIBAULT      LGT RAIN  45  34  65 SE12      30.09S
$$

...ELSEWHERE IN MINNESOTA...


CITY           SKY/WX    TMP DP  RH WIND       PRES   REMARKS
MINNEAPOLIS    CLOUDY    47  28  47 S16       30.08F
INTNL FALLS    CLOUDY    52  23  32 SE13G20   30.05F
DULUTH         CLOUDY    47  26  44 SE9       30.11S
RED WING       CLOUDY    48  28  46 S9        30.11F
REDWOOD FALLS  CLOUDY    43  36  76 SE20G26   29.95S
MANKATO        CLOUDY    41  36  81 SE24      30.02F
WORTHINGTON    CLOUDY    46  30  53 SE21G26   29.89F
FAIRMONT       CLOUDY    46  32  57 SE23G32   29.96F
$$

...SOUTHWEST WISCONSIN...


CITY           SKY/WX    TMP DP  RH WIND       PRES   REMARKS
LA CROSSE      CLOUDY    50  29  44 SW12      30.14R
PRAIRIE DU CHI CLOUDY    48  28  45 SE9       30.15S
BOSCOBEL       PTSUNNY   51  28  41 VRB3      30.16S
LONE ROCK      MOSUNNY   51  27  39 E10       30.15F
PLATTEVILLE    PTSUNNY   49  28  42 SE8       30.15F
FORT MC COY    PTSUNNY   51  23  33 S9        30.15S
CAMP DOUGLAS   CLOUDY    50  25  37 SE8       30.15S
VIROQUA        FAIR      48  27  43 SE12      30.14R
WIS DELLS      MOSUNNY   50  23  34 SE6       30.15F
$$

...ELSEWHERE IN WISCONSIN...


CITY           SKY/WX    TMP DP  RH WIND       PRES   REMARKS
MILWAUKEE      PTSUNNY   42  28  57 NE9       30.20R
MADISON        PTSUNNY   49  24  37 VRB6      30.16F
GREEN BAY      PTSUNNY   45  22  40 NE9       30.20R
EAU CLAIRE     CLOUDY    48  24  39 SE13      30.13F
BLACK RVR FLS  FAIR      51  22  32 E6        30.15S
MEDFORD        PTSUNNY   45  27  48 SE5       30.15S
WAUSAU         MOSUNNY   47  23  38 S7        30.14S
WIS RAPIDS     CLOUDY    49  20  31 SE6       30.17S
MARSHFIELD     CLOUDY    47  25  42 E8        30.15R
RICE LAKE      CLOUDY    46  25  43 SE13      30.14F
$$

...NORTHEAST IOWA...


CITY           SKY/WX    TMP DP  RH WIND       PRES   REMARKS
WATERLOO       PTSUNNY   49  30  48 SE15      30.08F
DUBUQUE        PTSUNNY   47  29  49 SE9       30.13F
DECORAH        PTSUNNY   46  28  49 E10G17    30.11F
MASON CITY     CLOUDY    46  33  60 SE22G30   30.06F
CHARLES CITY   PTSUNNY   46  32  57 SE18G25   30.08F
OELWEIN        PTSUNNY  N/A N/A N/A SE22      30.10F
$$

...ELSEWHERE IN IOWA...


CITY           SKY/WX    TMP DP  RH WIND       PRES   REMARKS
DES MOINES     LGT RAIN  50  38  63 SE15G21   30.01F
IOWA CITY      CLOUDY    50  32  50 SE14G20   30.14F
FORT DODGE     CLOUDY    50  30  46 SE20G31   29.97F
MARSHALLTOWN   PTSUNNY   50  31  48 SE21G30   30.05F
CEDAR RAPIDS   CLOUDY    49  31  49 SE15      30.10F
$$

...NORTHERN ILLINOIS...


CITY           SKY/WX    TMP DP  RH WIND       PRES   REMARKS
CHICAGO-OHARE  MOSUNNY   47  25  42 NE10      30.17F
DUPAGE         SUNNY     49  26  41 NE9G17    30.16F
CHICAGO-MIDWAY MOSUNNY   45  28  51 E6G16     30.17F
MOLINE         PTSUNNY   50  29  44 SE8       30.16S
ROCKFORD       MOSUNNY   51  25  36 VRB3      30.18F
STERLING       MOSUNNY   52  28  40 SE9       30.16F
PEORIA         MOSUNNY   54  32  43 MISG      30.15F
$$

NOTE: "FAIR" INDICATES FEW OR NO CLOUDS BELOW 12,000 FEET WITH NO
SIGNIFICANT WEATHER AND/OR OBSTRUCTIONS TO VISIBILITY. WIND
SPEEDS ARE IN MILES-PER-HOUR.



USA.gov is the U.S. government's official web portal to all federal, state and local government web resources and services.